Simultaneous Nadir Overpasses (SNOs) Predictions

Prediction of SNOs between METOP-C and LANDSAT-8 Satellite Orbit:

Table of predicted SNOs for the next 14.0 days since TLE Epoch: 3/29/2025
Index Date (METOP-C) Time (METOP-C) Lat,Lon (METOP-C) SZA (METOP-C ) Date (LANDSAT-8) Time (LANDSAT-8) Lat,Lon (LANDSAT-8) SZA (LANDSAT-8 ) Distance(km) Time Diff (sec)
1 03/30/2025 17:54:17 -81.12, 130.45 101.09 03/30/2025 17:55:18 -81.11, 130.45 101.07 0.46 61
2 03/30/2025 18:44:55 81.15, -61.40 79.00 03/30/2025 18:44:43 81.14, -61.47 78.99 1.28 12
3 04/02/2025 13:28:37 -81.12,-162.94 102.13 04/02/2025 13:29:33 -81.12,-163.01 102.11 1.24 56
4 04/02/2025 14:19:15 81.15, 5.20 77.97 04/02/2025 14:18:58 81.15, 5.04 77.94 2.67 17
5 04/05/2025 09:02:57 -81.12, -96.48 103.17 04/05/2025 09:03:47 -81.13, -96.44 103.14 0.72 50
6 04/05/2025 09:53:35 81.15, 71.64 76.92 04/05/2025 09:53:12 81.15, 71.59 76.91 0.95 23
7 04/08/2025 04:37:15 -81.13, -29.79 104.17 04/08/2025 04:37:59 -81.14, -29.84 104.16 0.95 44
8 04/08/2025 05:27:53 81.16, 138.33 75.92 04/08/2025 05:27:24 81.16, 138.17 75.89 2.71 29
9 04/11/2025 00:11:35 -81.13, 36.38 105.22 04/11/2025 00:12:12 -81.13, 36.43 105.20 0.85 37



Historial Predications of SNOs between METOP-C and LANDSAT-8
